Regional Weather Roundup
Issued by NWS

Home | Current Version | Previous Version | Graphics & Text | Print | Product List | Glossary On
Versions: 1 2 3 4 5 6 7 8 9 10 11 12 13 14 15 16 17 18 19 20 21 22 23 24 25 26 27 28 29 30 31 32 33 34 35 36 37 38 39 40 41 42 43 44 45 46 47 48 49 50
000
ASUS43 KLSX 252007
RWRMO

WEATHER SUMMARY FOR MISSOURI
NATIONAL WEATHER SERVICE SPRINGFIELD MO
300 PM CDT MON SEP 25 2017

NOTE: "FAIR" INDICATES FEW OR NO CLOUDS BELOW 12,000 FEET WITH NO
       SIGNIFICANT WEATHER AND/OR OBSTRUCTIONS TO VISIBILITY.
       CURRENT SKY AND/OR WEATHER CONDITIONS ARE NOT AVAILABLE FOR
       CHILLICOTHE AND FARMINGTON.

MOZ001>031-035>038-043-044-053-054-252100-
...NORTHERN AND WESTERN MISSOURI...

CITY           SKY/WX    TMP DP  RH WIND       PRES   REMARKS
KANSAS CTY INT PTSUNNY   86  67  52 S16       29.88F
KANSAS C DTWN  CLOUDY    88  66  48 S12       29.87F HX  90
LEE`S SUMMIT   MOSUNNY   88  66  48 S13G22    29.90F HX  90
ST JOSEPH      MOSUNNY   89  68  49 S16G24    29.85F HX  93
CHILLICOTHE      N/A     87  67  51 VRB6      29.89F HX  90
KIRKSVILLE     MOSUNNY   84  67  56 W8        29.91F

$$
MOZ066>068-077>081-088>096-101>105-252100-
...SOUTHWEST MISSOURI...

CITY           SKY/WX    TMP DP  RH WIND       PRES   REMARKS
SPRINGFIELD    SUNNY     86  63  45 SE14G21   29.93F
JOPLIN         SUNNY     86  65  49 S6        29.91F
BRANSON        PTSUNNY   86  59  39 SE8       29.95F

$$
MOZ032>034-039>042-045>050-055>058-069>072-252100-
...CENTRAL MISSOURI...

CITY           SKY/WX    TMP DP  RH WIND       PRES   REMARKS
COLUMBIA       MOSUNNY   88  65  46 SE9       29.93F HX  90
JEFFERSON CITY MOSUNNY   86  63  45 SE7       29.91F
ROLLA          PTSUNNY   88  61  40 VRB6      29.95F
SEDALIA        MOSUNNY   86  67  52 S13       29.93F
WHITEMAN AFB   MOSUNNY   87  64  46 SW10      29.90F
WARRENSBURG    MOSUNNY   86  63  45 SE9       29.90F
OSAGE BEACH    PTSUNNY   86  65  49 S8        29.94F

$$
MOZ051-052-059>065-252100-
...EAST CENTRAL MISSOURI...

CITY           SKY/WX    TMP DP  RH WIND       PRES   REMARKS
ST LOUIS INTL  MOSUNNY   89  64  43 VRB5      29.93F HX  90
SPIRIT OF STL  PTSUNNY   89  66  46 NE6       29.90F HX  91
ST CHARLES     MOSUNNY   92  62  36 MISG      29.90F HX  92

$$
MOZ072>076-082>087-097>100-106>115-252100-
...SOUTH CENTRAL AND SOUTHEAST MISSOURI...

CITY           SKY/WX    TMP DP  RH WIND       PRES   REMARKS
CAPE GIRARDEAU SUNNY     89  60  37 SE7       29.94F
FARMINGTON     MOSUNNY   87  64  46 SE9       29.96F
POPLAR BLUFF   MOSUNNY   87  62  43 SE6       29.93F
WEST PLAINS    MOSUNNY   87  58  37 SE9       29.97F

$$



USA.gov is the U.S. government's official web portal to all federal, state and local government web resources and services.